TimeCST,TemperatureF,Dew PointF,Humidity,Sea Level PressureIn,VisibilityMPH,Wind Direction,Wind SpeedMPH,Gust SpeedMPH,PrecipitationIn,Events,Conditions,WindDirDegrees,DateUTC
12:56 AM,15.1,8.1,74,30.36,10.0,ESE,9.2,-,N/A,,Overcast,120,2013-02-21 06:56:00
1:56 AM,14.0,8.1,77,30.35,10.0,East,11.5,18.4,N/A,,Overcast,100,2013-02-21 07:56:00
2:56 AM,12.9,8.1,81,30.31,10.0,East,9.2,-,N/A,,Overcast,100,2013-02-21 08:56:00
3:56 AM,12.0,8.1,84,30.26,10.0,East,9.2,-,N/A,,Clear,80,2013-02-21 09:56:00
4:56 AM,10.9,8.1,88,30.30,10.0,ESE,9.2,-,N/A,,Clear,120,2013-02-21 10:56:00
5:56 AM,12.0,8.1,84,30.30,10.0,East,10.4,-,N/A,,Overcast,90,2013-02-21 11:56:00
6:56 AM,12.9,8.1,81,30.27,10.0,East,9.2,-,N/A,,Overcast,90,2013-02-21 12:56:00
7:56 AM,12.9,8.1,81,30.28,10.0,East,9.2,-,N/A,,Overcast,90,2013-02-21 13:56:00
8:56 AM,15.1,9.0,77,30.28,10.0,East,10.4,-,N/A,,Overcast,90,2013-02-21 14:56:00
9:56 AM,17.1,10.0,74,30.29,10.0,East,9.2,-,N/A,,Overcast,90,2013-02-21 15:56:00
10:56 AM,19.0,9.0,65,30.28,10.0,East,16.1,-,N/A,,Overcast,100,2013-02-21 16:56:00
11:56 AM,21.0,9.0,60,30.25,10.0,ESE,15.0,-,N/A,,Overcast,110,2013-02-21 17:56:00
12:56 PM,23.0,10.0,58,30.20,10.0,East,15.0,-,N/A,,Scattered Clouds,80,2013-02-21 18:56:00
1:56 PM,23.0,10.9,60,30.17,10.0,ENE,17.3,-,N/A,,Overcast,60,2013-02-21 19:56:00
2:56 PM,21.9,12.0,66,30.16,10.0,ENE,17.3,23.0,N/A,,Overcast,70,2013-02-21 20:56:00
3:56 PM,21.0,12.0,68,30.17,10.0,East,17.3,-,N/A,,Overcast,80,2013-02-21 21:56:00
4:51 PM,19.4,12.2,74,30.06,2.0,ENE,18.4,-,0.00,Snow,Light Snow,60,2013-02-21 22:51:00
4:56 PM,19.9,12.9,74,30.15,2.5,ENE,18.4,-,0.00,Snow,Light Snow,60,2013-02-21 22:56:00
5:00 PM,19.4,12.2,74,30.06,2.0,ENE,16.1,-,0.00,Snow,Light Snow,60,2013-02-21 23:00:00
5:05 PM,19.4,12.2,74,30.06,1.2,ENE,15.0,-,0.00,Snow,Light Snow,60,2013-02-21 23:05:00
5:09 PM,19.4,14.0,80,30.06,0.8,ENE,17.3,-,0.00,Snow,Light Snow,60,2013-02-21 23:09:00
5:19 PM,19.4,14.0,80,30.05,0.5,ENE,18.4,21.9,0.00,Snow,Snow,70,2013-02-21 23:19:00
5:34 PM,17.6,15.8,93,30.05,0.5,ENE,16.1,-,0.01,Fog-Snow,Snow,60,2013-02-21 23:34:00
5:45 PM,17.6,15.8,93,30.04,0.2,NE,16.1,-,0.02,Fog-Snow,Snow,50,2013-02-21 23:45:00
5:56 PM,18.0,14.0,84,30.13,0.2,ENE,15.0,-,0.04,Fog-Snow,Snow,60,2013-02-21 23:56:00
6:01 PM,17.6,14.0,86,30.04,0.5,NE,18.4,-,0.00,Fog-Snow,Snow,50,2013-02-22 00:01:00
6:06 PM,17.6,14.0,86,30.03,0.5,NE,15.0,-,0.01,Fog-Snow,Snow,50,2013-02-22 00:06:00
6:46 PM,15.8,12.2,86,30.04,1.0,NE,15.0,-,0.04,Snow,Light Snow,50,2013-02-22 00:46:00
6:56 PM,16.0,12.9,88,30.12,1.0,NE,13.8,-,0.05,Snow,Light Snow,50,2013-02-22 00:56:00
7:05 PM,15.8,12.2,86,30.03,1.0,NE,13.8,-,0.00,Snow,Light Snow,50,2013-02-22 01:05:00
7:38 PM,15.8,12.2,86,30.02,1.2,NE,15.0,-,0.02,Snow,Light Snow,40,2013-02-22 01:38:00
7:56 PM,15.1,12.0,88,30.11,1.2,NE,12.7,-,0.02,Snow,Light Snow,50,2013-02-22 01:56:00
8:06 PM,15.8,12.2,86,30.03,0.5,ENE,12.7,-,0.01,Fog-Snow,Snow,60,2013-02-22 02:06:00
8:27 PM,15.8,12.2,86,30.03,1.0,ENE,12.7,-,0.03,Snow,Light Snow,60,2013-02-22 02:27:00
8:31 PM,15.8,12.2,86,30.03,1.0,NE,12.7,-,0.03,Snow,Light Snow,50,2013-02-22 02:31:00
8:48 PM,15.8,12.2,86,30.03,0.8,NE,12.7,-,0.04,Snow,Light Snow,50,2013-02-22 02:48:00
8:56 PM,16.0,12.9,88,30.11,0.5,NE,11.5,-,0.05,Fog-Snow,Snow,50,2013-02-22 02:56:00
9:33 PM,15.8,12.2,86,30.02,0.8,NE,13.8,-,0.04,Snow,Light Snow,50,2013-02-22 03:33:00
9:56 PM,16.0,12.9,88,30.10,0.8,NE,12.7,-,0.05,Snow,Light Snow,50,2013-02-22 03:56:00
10:56 PM,16.0,12.0,84,30.06,1.0,NE,13.8,-,0.04,Snow,Light Snow,40,2013-02-22 04:56:00
11:10 PM,15.8,12.2,86,29.98,2.0,NE,12.7,-,0.00,Snow,Light Snow,40,2013-02-22 05:10:00
11:30 PM,15.8,12.2,86,29.97,1.5,NE,13.8,-,0.00,Snow,Light Snow,40,2013-02-22 05:30:00
11:44 PM,15.8,12.2,86,29.97,1.5,NE,10.4,-,0.00,Snow,Light Snow,40,2013-02-22 05:44:00
11:56 PM,16.0,12.0,84,30.04,2.0,NE,13.8,-,0.00,Snow,Light Snow,50,2013-02-22 05:56:00